Regional Weather Roundup
Issued by NWS

Home | Current Version | Previous Version | Text Only | Print | Product List | Glossary Off
Versions: 1 2 3 4 5 6 7 8 9 10 11 12 13 14 15 16 17 18 19 20 21 22 23 24 25 26 27 28 29 30 31 32 33 34 35 36 37 38 39 40 41 42 43 44 45 46 47 48 49 50

000
ASUS44 KMEG 210400
RWRTN
TENNESSEE HOURLY STATE WEATHER ROUNDUP
NATIONAL WEATHER SERVICE MEMPHIS TN
1100 PM CDT WED AUG 20 2014

TNZ002-004-019-021-049-052-054-088>092-210500-
WEST TENNESSEE

CITY           SKY/WX    TMP DP  RH WIND       PRES   REMARKS
MEMPHIS INTL   CLEAR     82  71  69 S5        30.06S
NWS MEMPHIS      N/A     82 N/A N/A MISG        N/A
JACKSON        CLEAR     77  72  84 S7        30.07S
DYERSBURG      CLEAR     79  66  65 S3        30.05F
UNION CITY     CLEAR     75  73  94 S5        30.04S
PARIS          CLEAR     75  70  83 SE8       30.07S
LEXINGTON      CLEAR     77  73  88 CALM      30.08R
SAVANNAH       CLEAR     77  77 100 CALM      30.09S
$$

TNZ008-025-027-028-033-062-065-066-210500-
NORTH MIDDLE TENNESSEE

CITY           SKY/WX    TMP DP  RH WIND       PRES   REMARKS
NASHVILLE      CLOUDY    72  71  97 S6        30.09F
CLARKSVILLE    MOCLDY    71  69  93 SE5       30.07R
COOKEVILLE     CLEAR     68  66  94 CALM      30.14R
CROSSVILLE     CLOUDY    69  64  84 SE5       30.18F
$$

TNZ061-075-076-078-094-096-097-210500-
SOUTH MIDDLE TENNESSEE

CITY           SKY/WX    TMP DP  RH WIND       PRES   REMARKS
FAYETTEVILLE   CLEAR     72  70  94 CALM      30.11F
TULLAHOMA      CLEAR     72  68  88 E3        30.15R
WINCHESTER     PTCLDY    70  70 100 N7        30.14R
COLUMBIA       CLEAR     73  72  94 CALM      30.09S
SHELBYVILLE    CLEAR     72  70  94 E6        30.13S
$$

TNZ017-018-042-046-047-210500-
NORTHEAST TENNESSEE

CITY           SKY/WX    TMP DP  RH WIND       PRES   REMARKS
TRI CITIES     CLOUDY    68  65  90 W5        30.12F
ELIZABETHTON   CLEAR     64  64 100 CALM      30.13F
$$

TNZ012-013-036-069-073-074-210500-
CENTRAL EAST TENNESSEE

CITY           SKY/WX    TMP DP  RH WIND       PRES   REMARKS
KNOXVILLE      CLOUDY    69  68  96 W6        30.12S
OAK RIDGE      CLOUDY    69  67  93 VRB3      30.16S
GATLINBURG     CLEAR     66  64  94 SW5       30.11F
$$

TNZ083-085-099-210500-
SOUTHEAST TENNESSEE

CITY           SKY/WX    TMP DP  RH WIND       PRES   REMARKS
CHATTANOOGA    CLOUDY    73  67  81 N3        30.14F
$$

SKY/WX REPORTED AS FAIR MEANS FEW OR NO CLOUDS BELOW
12 THOUSAND FEET.




USA.gov is the U.S. government's official web portal to all federal, state and local government web resources and services.